• In Spain
  • List of Countries
  • For 7 days
  • Water Temperature
  • Satellite Maps
  • Weather Map
  • Weather Widgets
  • user-avatar
    Login

    Hourly Weather Pleven

    Today, 19 September, Wednesday

    Time Temperature Precipitation Wind Pressure Humidity
    00:00 +18°C° 0 mm 2 mps 750 mmHg 65%
    01:00 +18°C° 0 mm 2 mps 750 mmHg 67%
    02:00 +17°C° 0 mm 2 mps 750 mmHg 66%
    03:00 +17°C° 0 mm 2 mps 750 mmHg 68%
    04:00 +17°C° 0 mm 2 mps 750 mmHg 70%
    05:00 +16°C° 0 mm 1 mps 750 mmHg 72%
    06:00 +18°C° 0 mm 1 mps 750 mmHg 67%
    07:00 +19°C° 0 mm 1 mps 751 mmHg 63%
    08:00 +20°C° 0 mm 1 mps 751 mmHg 58%
    09:00 +21°C° 0 mm 2 mps 751 mmHg 50%
    10:00 +24°C° 0 mm 2 mps 751 mmHg 42%
    11:00 +26°C° 0 mm 3 mps 751 mmHg 34%
    12:00 +27°C° 0 mm 3 mps 750 mmHg 31%
    13:00 +28°C° 0 mm 3 mps 750 mmHg 28%
    14:00 +29°C° 0 mm 3 mps 750 mmHg 25%
    15:00 +28°C° 0 mm 3 mps 749 mmHg 26%
    16:00 +28°C° 0 mm 3 mps 749 mmHg 27%
    17:00 +28°C° 0 mm 3 mps 749 mmHg 28%
    18:00 +25°C° 0 mm 2 mps 749 mmHg 33%
    19:00 +23°C° 0 mm 2 mps 749 mmHg 38%
    20:00 +20°C° 0 mm 2 mps 749 mmHg 43%
    21:00 +20°C° 0 mm 1 mps 750 mmHg 45%
    22:00 +19°C° 0 mm 1 mps 750 mmHg 48%
    23:00 +19°C° 0 mm 1 mps 750 mmHg 50%

    Tomorrow, 20 September, Thursday

    Time Temperature Precipitation Wind Pressure Humidity
    00:00 +18°C° 0 mm 1 mps 750 mmHg 53%
    01:00 +18°C° 0 mm 1 mps 750 mmHg 55%
    02:00 +16°C° 0 mm 1 mps 750 mmHg 58%
    03:00 +16°C° 0 mm 1 mps 750 mmHg 60%
    04:00 +15°C° 0 mm 1 mps 750 mmHg 62%
    05:00 +15°C° 0 mm 1 mps 749 mmHg 64%
    06:00 +16°C° 0 mm 1 mps 750 mmHg 61%
    07:00 +17°C° 0 mm 0 mps 750 mmHg 57%
    08:00 +18°C° 0 mm 0 mps 750 mmHg 53%
    09:00 +22°C° 0 mm 1 mps 750 mmHg 46%
    10:00 +24°C° 0 mm 1 mps 750 mmHg 39%
    11:00 +26°C° 0 mm 2 mps 750 mmHg 32%
    12:00 +27°C° 0 mm 2 mps 749 mmHg 29%
    13:00 +28°C° 0 mm 2 mps 749 mmHg 26%
    14:00 +29°C° 0 mm 2 mps 749 mmHg 23%
    15:00 +28°C° 0 mm 2 mps 748 mmHg 24%
    16:00 +28°C° 0 mm 2 mps 748 mmHg 26%
    17:00 +28°C° 0 mm 2 mps 748 mmHg 27%
    18:00 +26°C° 0 mm 2 mps 748 mmHg 32%
    19:00 +23°C° 0 mm 1 mps 748 mmHg 37%
    20:00 +21°C° 0 mm 1 mps 748 mmHg 41%
    21:00 +21°C° 0 mm 1 mps 748 mmHg 43%
    22:00 +20°C° 0 mm 1 mps 749 mmHg 45%
    23:00 +20°C° 0 mm 1 mps 749 mmHg 46%

    Day after tomorrow, 21 September, Friday

    Time Temperature Precipitation Wind Pressure Humidity
    00:00 +20°C° 0 mm 1 mps 749 mmHg 47%
    01:00 +19°C° 0 mm 1 mps 749 mmHg 48%
    02:00 +19°C° 0 mm 1 mps 749 mmHg 49%
    03:00 +19°C° 0 mm 1 mps 748 mmHg 50%
    04:00 +19°C° 0 mm 1 mps 748 mmHg 51%
    05:00 +18°C° 0 mm 1 mps 748 mmHg 52%
    06:00 +19°C° 0 mm 1 mps 748 mmHg 51%
    07:00 +18°C° 0 mm 0 mps 749 mmHg 49%
    08:00 +19°C° 0 mm 0 mps 749 mmHg 48%
    09:00 +23°C° 0 mm 1 mps 749 mmHg 44%
    10:00 +25°C° 0 mm 1 mps 749 mmHg 40%
    11:00 +27°C° 0 mm 2 mps 749 mmHg 36%
    12:00 +28°C° 0 mm 2 mps 749 mmHg 33%
    13:00 +29°C° 0 mm 2 mps 748 mmHg 31%
    14:00 +30°C° 0 mm 2 mps 748 mmHg 28%
    15:00 +30°C° 0 mm 2 mps 748 mmHg 29%
    16:00 +29°C° 0 mm 2 mps 747 mmHg 30%
    17:00 +29°C° 0 mm 2 mps 747 mmHg 32%
    18:00 +27°C° 0 mm 2 mps 747 mmHg 35%
    19:00 +25°C° 0 mm 2 mps 747 mmHg 39%
    20:00 +23°C° 0 mm 2 mps 747 mmHg 43%
    21:00 +21°C° 0 mm 2 mps 748 mmHg 44%
    22:00 +22°C° 0 mm 1 mps 748 mmHg 46%
    23:00 +21°C° 0 mm 1 mps 748 mmHg 48%

    22 September, Saturday

    Time Temperature Precipitation Wind Pressure Humidity
    00:00 +20°C° 0 mm 1 mps 748 mmHg 49%
    01:00 +20°C° 0 mm 1 mps 748 mmHg 49%
    02:00 +20°C° 0 mm 1 mps 748 mmHg 50%
    03:00 +19°C° 0 mm 1 mps 748 mmHg 51%
    04:00 +19°C° 0 mm 1 mps 748 mmHg 51%
    05:00 +19°C° 0 mm 1 mps 748 mmHg 52%
    06:00 +20°C° 0 mm 1 mps 748 mmHg 50%
    07:00 +21°C° 0 mm 1 mps 748 mmHg 47%
    08:00 +22°C° 0 mm 1 mps 748 mmHg 45%
    09:00 +24°C° 0 mm 1 mps 748 mmHg 40%
    10:00 +27°C° 0 mm 1 mps 748 mmHg 34%
    11:00 +29°C° 0 mm 1 mps 748 mmHg 29%
    12:00 +30°C° 0 mm 1 mps 747 mmHg 28%
    13:00 +31°C° 0 mm 1 mps 747 mmHg 26%
    14:00 +32°C° 0 mm 1 mps 747 mmHg 24%
    15:00 +32°C° 0 mm 1 mps 746 mmHg 25%
    16:00 +31°C° 0 mm 1 mps 746 mmHg 26%
    17:00 +31°C° 0 mm 1 mps 746 mmHg 27%
    18:00 +28°C° 0 mm 1 mps 746 mmHg 30%
    19:00 +26°C° 0 mm 1 mps 746 mmHg 34%
    20:00 +24°C° 0 mm 1 mps 747 mmHg 38%
    21:00 +23°C° 0 mm 1 mps 747 mmHg 39%
    22:00 +23°C° 0 mm 1 mps 747 mmHg 40%
    23:00 +23°C° 0 mm 2 mps 747 mmHg 41%

    23 September, Sunday

    Time Temperature Precipitation Wind Pressure Humidity
    00:00 +21°C° 0 mm 2 mps 747 mmHg 41%
    01:00 +21°C° 0 mm 2 mps 747 mmHg 41%
    02:00 +21°C° 0 mm 2 mps 747 mmHg 41%
    03:00 +20°C° 0 mm 3 mps 747 mmHg 44%
    04:00 +20°C° 0 mm 4 mps 747 mmHg 48%
    05:00 +20°C° 0 mm 5 mps 748 mmHg 51%
    06:00 +20°C° 0 mm 5 mps 748 mmHg 52%
    07:00 +20°C° 0 mm 5 mps 748 mmHg 53%
    08:00 +21°C° 0 mm 5 mps 749 mmHg 54%
    09:00 +22°C° 0 mm 5 mps 749 mmHg 51%
    10:00 +22°C° 0 mm 5 mps 749 mmHg 48%
    11:00 +23°C° 0 mm 5 mps 750 mmHg 45%
    12:00 +26°C° 0 mm 5 mps 749 mmHg 41%
    13:00 +27°C° 0 mm 5 mps 749 mmHg 37%
    14:00 +28°C° 0 mm 4 mps 748 mmHg 32%
    15:00 +27°C° 0 mm 4 mps 748 mmHg 32%
    16:00 +27°C° 0 mm 4 mps 748 mmHg 32%
    17:00 +27°C° 0 mm 3 mps 748 mmHg 32%
    18:00 +25°C° 0 mm 3 mps 749 mmHg 36%
    19:00 +21°C° 0 mm 2 mps 749 mmHg 40%
    20:00 +20°C° 0 mm 1 mps 749 mmHg 44%
    21:00 +20°C° 0 mm 1 mps 749 mmHg 46%
    22:00 +19°C° 0 mm 1 mps 749 mmHg 48%
    23:00 +19°C° 0 mm 1 mps 749 mmHg 50%

    24 September, Monday

    Time Temperature Precipitation Wind Pressure Humidity
    00:00 +19°C° 0 mm 1 mps 749 mmHg 53%
    01:00 +18°C° 0 mm 1 mps 748 mmHg 56%
    02:00 +18°C° 0 mm 1 mps 748 mmHg 59%
    03:00 +17°C° 0 mm 2 mps 747 mmHg 62%
    04:00 +17°C° 0 mm 2 mps 747 mmHg 66%
    05:00 +16°C° 0 mm 2 mps 747 mmHg 69%
    06:00 +17°C° 0 mm 2 mps 746 mmHg 67%
    07:00 +19°C° 0 mm 2 mps 746 mmHg 64%
    08:00 +20°C° 0 mm 2 mps 746 mmHg 61%
    09:00 +23°C° 0 mm 2 mps 745 mmHg 54%
    10:00 +26°C° 0 mm 2 mps 745 mmHg 47%
    11:00 +28°C° 0 mm 1 mps 744 mmHg 40%
    12:00 +30°C° 0 mm 2 mps 744 mmHg 37%
    13:00 +31°C° 0 mm 2 mps 743 mmHg 34%
    14:00 +32°C° 0 mm 2 mps 742 mmHg 30%
    15:00 +32°C° 0 mm 2 mps 742 mmHg 31%
    16:00 +32°C° 0 mm 2 mps 741 mmHg 32%
    17:00 +31°C° 0 mm 3 mps 741 mmHg 33%
    18:00 +28°C° 0 mm 5 mps 742 mmHg 39%
    19:00 +26°C° 0 mm 7 mps 743 mmHg 44%
    20:00 +22°C° 0 mm 9 mps 744 mmHg 50%
    21:00 +20°C° 0.1 mm 8 mps 745 mmHg 49%
    22:00 +18°C° 0.1 mm 8 mps 746 mmHg 48%
    23:00 +17°C° 0.1 mm 7 mps 747 mmHg 47%
    Show more